AEROCUBE 15B (45117 NORAD) Tracking and Keplerian Element Data

This shows tracking and keplerian element data for the satellite.

Feedback or suggestion? Click here.




ElementValue
Catalog45117
NameAEROCUBE 15B
Epoch Orbit2358
Epoch Day185.48613038
Epoch Year2020
RAAN285.7458
Inclination51.644
Eccentricity0.0011574
Argument of Perigee114.15
Mean Anonmoly246.0693
Mean Motion15.33744046
Decay Rate1.275E-05
L11 45117U 19071G 20185.48613038 .00001275 00000-0 49907-4 0 9993
L22 45117 51.6440 285.7458 0011574 114.1500 246.0693 15.33744046 23584

Live tracking and technical data element details for AEROCUBE 15B (NORAD 45117). AEROCUBE 15B can be tracked NOW for your location showing map with azimuth and elevation plus other details from your city location.

Track the satellite on the map from your city or location and see movement details for azimuth, elevation, latitude, longitude, range, height, and movement on the map or in text.







IsCatalogInMostPopularTable: catalog: 45117, numindb: 28
Update: records affected: 1



GetName: 45117 AEROCUBE 15B

Hit Count: updated at: Fri, 03 Jul 2020 16:48:04 GMT